Location: La Trinit�
(48.1620°N, 3.4512°W)
Time: 18:02:09
(UTC+00:00)

Cosmos 2112 Rocket - Pass Details

Date: 08 May 2021
Orbit: 755 x 787 km, 74.1° (Epoch: 21 June)

Event Time Altitude Azimuth Distance (km) Brightness Sun altitude
Rises 23:25:49 0° 334° (NNW) 3,284 8.6 -23.7°
Reaches altitude 10° 23:28:15 10° 330° (NNW) 2,355 7.5 -23.8°
Maximum altitude 23:33:29 58° 253° (WSW) 918 4.3 -24.0°
Enters shadow 23:34:11 53° 221° (SW) 962 4.2 -24.0°
